Location: Unspecified
(0.0000°N, 0.0000°E)
Time: 06:59:19
(UTC+00:00)

Envisat - Pass Details

Date: 11 August 2021
Orbit: 764 x 766 km, 98.2° (Epoch: 23 September)

Event Time Altitude Azimuth Distance (km) Brightness Sun altitude
Rises 03:45:36 0° 49° (NE) 3,216 7.1 -33.5°
Reaches altitude 10° 03:49:14 10° 76° (ENE) 2,294 6.3 -32.7°
Maximum altitude 03:51:28 13° 103° (ESE) 2,093 5.9 -32.1°
Drops below altitude 10° 03:53:43 10° 129° (SE) 2,298 5.8 -31.6°
Sets 03:57:20 0° 156° (SSE) 3,226 6.3 -30.7°
